Mumbai, India

4:58 AM IST on August 24, 2017 (GMT +0530)
Chhatrapati Shivaji International

Weather History for VABB - May, 2013

Change the Weather History Date:

Monday, May 6, 2013

  Actual Average Record
Temperature  
Mean Temperature 82 °F -  
Max Temperature 91 °F 88 °F 96 °F (2004)
Min Temperature 74 °F 79 °F 74 °F (2013)
Cooling Degree Days 18    
Growing Degree Days 32 (Base 50)    
Moisture  
Dew Point 74 °F    
Average Humidity 67    
Maximum Humidity 76    
Minimum Humidity 48    
Precipitation  
Precipitation 0.00 in - - ()
Sea Level Pressure  
Sea Level Pressure 29.73 in    
Wind  
Wind Speed 6 mph ()    
Max Wind Speed 14 mph    
Max Gust Speed 22 mph    
Visibility 2.5 miles    
Events      
Averages and records for this station are not official NWS values.
T = Trace of Precipitation, MM = Missing Value Source: Averaged Metar Reports

Daily Weather History Graph

Daily Weather History Graph

Search for Another Location

Airport or City:

Trip Planner

Search our weather history database for the weather conditions in past years. The results will help you decide how hot, cold, wet, or windy it might be!

Date:

Astronomy

May. 06, 2013 Rise Set
Actual Time 6:07 AM IST 7:02 PM IST
Civil Twilight 5:44 AM IST 7:25 PM IST
Nautical Twilight 5:17 AM IST 7:53 PM IST
Astronomical Twilight 4:49 AM IST 8:20 PM IST
Moon 3:26 AM IST (5/6) 4:00 PM IST (5/6)
Length of Visible Light 13h 41m
Length of Day
12h 54m
Waning Crescent, 14% of the Moon is Illuminated
May 6
Waning Crescent
May 10
New
May 18
First Quarter
May 25
Full
Jun 1
Last Quarter

Hourly Weather History & Observations

Time (IST) Temp. Heat Index Dew Point Humidity Pressure Visibility Wind Dir Wind Speed Gust Speed Precip Events Conditions
12:10 AM 84.2 °F 92.3 °F 75.2 °F 74% 29.77 in 2.5 mi WSW 8.1 mph - N/A   Haze
12:40 AM 84.2 °F 92.3 °F 75.2 °F 74% 29.74 in 2.5 mi West 4.6 mph - N/A   Haze
1:10 AM 84.2 °F 92.3 °F 75.2 °F 74% 29.74 in 2.5 mi West 6.9 mph - N/A   Haze
1:40 AM 84.2 °F 92.3 °F 75.2 °F 74% 29.74 in 2.5 mi West 10.4 mph - N/A   Haze
2:10 AM 84.2 °F 90.9 °F 73.4 °F 70% 29.71 in 2.5 mi WNW 8.1 mph - N/A   Haze
2:30 AM 83 °F - 75 °F 71% 29.71 in 1 mi NW 3.5 mph - -   Haze
2:40 AM 84.2 °F 92.3 °F 75.2 °F 74% 29.71 in 2.5 mi WNW 5.8 mph - N/A   Haze
3:10 AM 84.2 °F 90.9 °F 73.4 °F 70% 29.71 in 2.5 mi WNW 3.5 mph - N/A   Haze
3:40 AM 82.4 °F 88.2 °F 73.4 °F 74% 29.71 in 2.5 mi NW 5.8 mph - N/A   Haze
4:10 AM 82.4 °F 88.2 °F 73.4 °F 74% 29.71 in 2.5 mi NW 4.6 mph - N/A   Haze
4:40 AM 82.4 °F 88.2 °F 73.4 °F 74% 29.71 in 2.5 mi NW 4.6 mph - N/A   Haze
5:10 AM 82.4 °F 88.2 °F 73.4 °F 74% 29.71 in 2.5 mi Calm Calm - N/A   Haze
5:30 AM 79 °F - 73 °F 76% 29.72 in 1 mi Calm Calm - -   Haze
5:40 AM 82.4 °F 87.2 °F 71.6 °F 70% 29.71 in 2.5 mi Variable 3.5 mph - N/A   Haze
6:10 AM 82.4 °F 88.2 °F 73.4 °F 74% 29.71 in 2.5 mi Calm Calm - N/A   Haze
6:40 AM 82.4 °F 88.2 °F 73.4 °F 74% 29.74 in 2.5 mi Calm Calm - N/A   Haze
7:10 AM 84.2 °F 90.9 °F 73.4 °F 70% 29.74 in 2.5 mi ENE 3.5 mph - N/A   Smoke
7:40 AM 84.2 °F 90.9 °F 73.4 °F 70% 29.74 in 2.5 mi Calm Calm - N/A   Smoke
8:10 AM 84.2 °F 89.6 °F 71.6 °F 66% 29.77 in 1.9 mi NW 3.5 mph - N/A   Smoke
8:30 AM 87 °F - 72 °F 54% 29.77 in 1 mi Calm Calm - -   Smoke
8:40 AM 86.0 °F 91.8 °F 71.6 °F 62% 29.77 in 2.2 mi WSW 3.5 mph - N/A   Smoke
9:10 AM 86.0 °F 91.8 °F 71.6 °F 62% 29.77 in 2.2 mi SSW 4.6 mph - N/A   Smoke
10:10 AM 87.8 °F 93.8 °F 71.6 °F 58% 29.77 in 2.5 mi SSW 6.9 mph - N/A   Smoke
10:40 AM 87.8 °F 95.6 °F 73.4 °F 62% 29.77 in 2.5 mi West 6.9 mph - N/A   Smoke
11:10 AM 87.8 °F 95.6 °F 73.4 °F 62% 29.77 in 2.5 mi WSW 12.7 mph - N/A   Smoke
11:30 AM 90 °F - 74 °F 50% 29.78 in 2 mi West 6.9 mph - -   Scattered Clouds
11:40 AM 87.8 °F 95.6 °F 73.4 °F 62% 29.77 in 2.5 mi West 6.9 mph - N/A   Smoke
12:10 PM 87.8 °F 95.6 °F 73.4 °F 62% 29.77 in 2.5 mi WSW 12.7 mph - N/A   Smoke
12:40 PM 89.6 °F 98.2 °F 73.4 °F 59% 29.74 in 2.8 mi WSW 8.1 mph 19.6 mph N/A   Smoke
1:40 PM 89.6 °F 96.2 °F 71.6 °F 55% 29.71 in 3.1 mi West 10.4 mph 21.9 mph N/A   Smoke
2:10 PM 87.8 °F 92.6 °F 69.8 °F 55% 29.71 in 3.1 mi West 8.1 mph 19.6 mph N/A   Smoke
2:30 PM 90 °F - 73 °F 48% 29.72 in 2 mi West 6.9 mph - -   Scattered Clouds
2:40 PM 87.8 °F 93.8 °F 71.6 °F 58% 29.71 in 3.1 mi West 8.1 mph 19.6 mph N/A   Smoke
3:10 PM 87.8 °F 93.8 °F 71.6 °F 58% 29.68 in 3.1 mi WSW 8.1 mph 19.6 mph N/A   Smoke
3:40 PM 87.8 °F 93.8 °F 71.6 °F 58% 29.68 in 3.1 mi West 8.1 mph 19.6 mph N/A   Smoke
4:10 PM 87.8 °F 95.6 °F 73.4 °F 62% 29.68 in 3.1 mi West 8.1 mph 19.6 mph N/A   Smoke
4:40 PM 87.8 °F 95.6 °F 73.4 °F 62% 29.68 in 3.1 mi West 11.5 mph - N/A   Smoke
5:10 PM 86.0 °F 93.4 °F 73.4 °F 66% 29.68 in 3.1 mi West 8.1 mph 19.6 mph N/A   Smoke
5:30 PM 89 °F - 74 °F 54% 29.68 in 2 mi NW 5.8 mph - -   Clear
5:40 PM 86.0 °F 93.4 °F 73.4 °F 66% 29.68 in 3.1 mi West 8.1 mph 19.6 mph N/A   Smoke
6:10 PM 86.0 °F 93.4 °F 73.4 °F 66% 29.68 in 3.1 mi West 8.1 mph 19.6 mph N/A   Smoke
6:40 PM 86.0 °F 93.4 °F 73.4 °F 66% 29.71 in 3.1 mi West 12.7 mph - N/A   Smoke
7:10 PM 84.2 °F 92.3 °F 75.2 °F 74% 29.71 in 2.5 mi West 13.8 mph - N/A   Smoke
7:40 PM 84.2 °F 90.9 °F 73.4 °F 70% 29.71 in 2.5 mi West 12.7 mph - N/A   Smoke
8:10 PM 84.2 °F 92.3 °F 75.2 °F 74% 29.74 in 2.5 mi West 11.5 mph - N/A   Haze
8:40 PM 84.2 °F 92.3 °F 75.2 °F 74% 29.74 in 2.5 mi West 9.2 mph - N/A   Haze
9:10 PM 84.2 °F 92.3 °F 75.2 °F 74% 29.74 in 2.5 mi West 6.9 mph - N/A   Haze
9:40 PM 84.2 °F 92.3 °F 75.2 °F 74% 29.74 in 2.5 mi West 9.2 mph - N/A   Haze
10:10 PM 84.2 °F 92.3 °F 75.2 °F 74% 29.77 in 2.5 mi West 8.1 mph - N/A   Haze
10:40 PM 84.2 °F 92.3 °F 75.2 °F 74% 29.77 in 2.5 mi WNW 6.9 mph - N/A   Haze
11:10 PM 84.2 °F 92.3 °F 75.2 °F 74% 29.77 in 2.5 mi West 8.1 mph - N/A   Haze
11:30 PM 84 °F - 75 °F 69% 29.77 in 1 mi West 4.6 mph - -   Haze
11:40 PM 84.2 °F 92.3 °F 75.2 °F 74% 29.77 in 2.5 mi WNW 6.9 mph - N/A   Haze